TITAN 3C TRANSTAGE R/B, 2222

Orbit data source: Space-Track

TITAN 3C TRANSTAGE R/B, 2222 is space debris in GEO originally from a launch on Thu, 16 Jun 1966 UTC launched from the Air Force Eastern Test Range (AFETR). Debris objects in space refer to the collection of defunct objects orbiting the Earth. Examples of debris include non-operational satellites, rocket bodies, and fragments generated from explosions, collisions, or faulty payload assembly.

Not visible in the next 10 days
Identifier
2222, 1966-053J
Orbit
GEO
Country
Flag of USUS
Related business
Manufacturer
Martin Marietta
Mission
Spacecraft
Bus & Motor
TRANSTAGE, Unknown motor
Mass
2,050 kg wet, 2,050 kg dry
Launch date (UTC)
1966-06-16 (59 years ago)
Launch vehicle
Unknown
Launch site
Air Force Eastern Test Range (AFETR)
Object type
Payload
Rocket body
Debris
Shape & HBR
Cyl + 2 Nozzle, 2.3 m
Radar Cross Section
14.974 m², Large (>1 m²)

Expand to show TLE details & history
Last TLE update: 15 hours ago

TLE from 15 hours ago
0 TITAN 3C TRANSTAGE R/B
1 02222U 66053J   25245.80550544 -.00000081  00000-0  00000-0 0  9997
2 02222   7.8398  50.6106 0164054 162.3648  37.2104  1.06721121127315
Epoch: 2025-09-02T19:19Z
TLE epoch observation values (Epoch: 2025-09-02T19:19:55.67Z)
Latitude
-2.75332°
Longitude
-21.01609°
Altitude
33,548.099 km
Speed
3.18 km/s
True Right ascension
16h 44m 37s
True Declination
-2° 45' 01"
Sunlit
Object was in daylight at epoch
Visualization orbit readout
Latitude
Unknown
Longitude
Unknown
Altitude
Unknown
Speed
Unknown
Apparent Right ascension
Unknown
Apparent Declination
Unknown
Sunlit
N/A
Visualization observer readout
Local Sidereal Time
01:55:47
Azimuth
Unknown
Elevation
Unknown
Doppler factor
Unknown
Orbital elements
Apogee altitude
34,734.96 km
Perigee altitude
33,407.779 km
Semi-major axis
40,449.506 km
Eccentricity
0.01641
Inclination
7.8398°
RAAN
50.6106°
Arg. of periapsis
162.3648°
True anomaly
38.36605°
Mean anomaly
37.2104°
Eccentric anomaly
37.78633°
Mean motion
0.26679 °/min
Orbital period
1,349.36 mins
BSTAR
0
Loading maneuver chart data...
Computing Atmospheric mass density...
Loading historical data...
Loading historical data...
Loading historical data...
Loading historical data...
Loading historical data...
Loading historical data...
Loading historical data...

Documentation

Showing up to 5 results
|